Clarksville, TN

9:57 AM CST on February 24, 2017 (GMT -0600)
Outlaw

Weather History for KCKV - January, 2013

Change the Weather History Date:

Tuesday, January 1, 2013

  Actual Average Record
Temperature  
Mean Temperature 34 °F 36 °F  
Max Temperature 39 °F 46 °F 79 °F (1952)
Min Temperature 28 °F 27 °F 0 °F (1977)
Degree Days  
Heating Degree Days 31    
Month to date heating degree days 31  
Since 1 July heating degree days 1471  
Cooling Degree Days 0    
Month to date cooling degree days 0  
Year to date cooling degree days  
Moisture  
Dew Point 33 °F    
Average Humidity 89    
Maximum Humidity 100    
Minimum Humidity 78    
Precipitation  
Precipitation 0.02 in 0.11 in 1.60 in (1979)
Month to date precipitation 0.02 0.11  
Year to date precipitation 0.11  
Sea Level Pressure  
Sea Level Pressure 30.10 in    
Wind  
Wind Speed 8 mph (North)    
Max Wind Speed 18 mph    
Max Gust Speed 21 mph    
Visibility 4 miles    
Events Rain    
T = Trace of Precipitation, MM = Missing Value Source: NWS Daily Summary

Daily Weather History Graph

Daily Weather History Graph

Search for Another Location

Airport or City:

Trip Planner

Search our weather history database for the weather conditions in past years. The results will help you decide how hot, cold, wet, or windy it might be!

Date:

Astronomy

Jan. 01, 2013 Rise Set
Actual Time 7:01 AM CST 4:44 PM CST
Civil Twilight 6:33 AM CST 5:13 PM CST
Nautical Twilight 6:00 AM CST 5:45 PM CST
Astronomical Twilight 5:29 AM CST 6:17 PM CST
Moon 9:07 PM CST (1/1) 9:20 AM CST (1/1)
Length of Visible Light 10h 40m
Length of Day
9h 43m
Waning Gibbous, 83% of the Moon is Illuminated
Jan 1
Waning Gibbous
Jan 4
Last Quarter
Jan 11
New
Jan 18
First Quarter
Jan 26
Full

Hourly Weather History & Observations

Time (CST) Temp. Windchill Dew Point Humidity Pressure Visibility Wind Dir Wind Speed Gust Speed Precip Events Conditions
12:02 AM 37.4 °F 31.4 °F 35.6 °F 93% 30.03 in 3.0 mi SE 8.1 mph - 0.01 in Rain Light Rain
12:21 AM 37.4 °F 33.8 °F 35.6 °F 93% 30.03 in 2.5 mi ESE 4.6 mph - 0.02 in Rain Light Rain
12:52 AM 37.9 °F - 37.0 °F 97% 30.04 in 1.8 mi Calm Calm - 0.03 in Rain Light Rain
1:00 AM 37.4 °F - 35.6 °F 93% 30.02 in 2.0 mi Calm Calm - 0.00 in Rain Light Rain
1:07 AM 37.4 °F - 35.6 °F 93% 30.03 in 1.8 mi Calm Calm - 0.00 in Rain Light Rain
1:15 AM 37.4 °F - 35.6 °F 93% 30.04 in 2.0 mi Calm Calm - 0.00 in Rain Light Rain
1:31 AM 37.4 °F 34.9 °F 35.6 °F 93% 30.04 in 1.5 mi NNE 3.5 mph - 0.00 in   Overcast
1:52 AM 37.9 °F 34.4 °F 37.0 °F 97% 30.04 in 1.5 mi NNE 4.6 mph - 0.00 in   Overcast
2:15 AM 37.4 °F 34.9 °F 37.4 °F 100% 30.03 in 2.0 mi NE 3.5 mph - N/A   Overcast
2:43 AM 37.4 °F 34.9 °F 37.4 °F 100% 30.04 in 1.8 mi NNE 3.5 mph - N/A   Overcast
2:52 AM 37.9 °F 35.5 °F 37.0 °F 97% 30.05 in 1.8 mi NNE 3.5 mph - N/A   Overcast
3:52 AM 37.0 °F 31.6 °F 36.0 °F 96% 30.06 in 1.2 mi North 6.9 mph - N/A   Overcast
4:52 AM 37.0 °F 34.5 °F 37.0 °F 100% 30.06 in 1.0 mi NNE 3.5 mph - N/A   Overcast
5:52 AM 37.0 °F 32.4 °F 36.0 °F 96% 30.07 in 1.0 mi NNE 5.8 mph - N/A   Overcast
6:08 AM 37.4 °F 32.8 °F 35.6 °F 93% 30.06 in 0.8 mi NNE 5.8 mph - N/A   Overcast
6:52 AM 37.0 °F 32.4 °F 36.0 °F 96% 30.08 in 1.0 mi NNE 5.8 mph - N/A   Mist
7:10 AM 37.4 °F 32.1 °F 35.6 °F 93% 30.08 in 3.0 mi North 6.9 mph - N/A   Overcast
7:21 AM 37.4 °F 32.1 °F 35.6 °F 93% 30.08 in 2.0 mi NNE 6.9 mph - N/A   Overcast
7:29 AM 37.4 °F 31.4 °F 35.6 °F 93% 30.07 in 1.5 mi NNE 8.1 mph - N/A   Overcast
7:52 AM 37.0 °F 31.6 °F 36.0 °F 96% 30.07 in 3.0 mi East 6.9 mph - N/A   Overcast
9:25 AM 37.4 °F 29.8 °F 35.6 °F 93% 30.08 in 2.0 mi North 11.5 mph - N/A   Overcast
9:43 AM 37.4 °F 30.3 °F 35.6 °F 93% 30.10 in 3.0 mi North 10.4 mph - N/A   Overcast
9:50 AM 37.4 °F 29.8 °F 35.6 °F 93% 30.10 in 2.5 mi North 11.5 mph - N/A   Overcast
9:52 AM 37.0 °F 29.8 °F 36.0 °F 96% 30.12 in 2.5 mi North 10.4 mph - N/A   Overcast
9:59 AM 37.4 °F 29.8 °F 35.6 °F 93% 30.11 in 4.0 mi North 11.5 mph - N/A   Overcast
10:14 AM 37.4 °F 30.8 °F 35.6 °F 93% 30.12 in 4.0 mi North 9.2 mph - N/A   Overcast
10:52 AM 37.9 °F 32.1 °F 36.0 °F 93% 30.11 in 3.0 mi North 8.1 mph - N/A   Overcast
11:05 AM 37.4 °F 32.8 °F 35.6 °F 93% 30.10 in 2.5 mi North 5.8 mph - N/A   Overcast
11:15 AM 37.4 °F 32.1 °F 35.6 °F 93% 30.09 in 2.0 mi North 6.9 mph - N/A   Overcast
11:44 AM 37.4 °F 31.4 °F 35.6 °F 93% 30.10 in 3.0 mi North 8.1 mph - N/A   Overcast
11:52 AM 37.9 °F 32.1 °F 36.0 °F 93% 30.10 in 5.0 mi North 8.1 mph - N/A   Overcast
12:52 PM 37.9 °F 31.5 °F 35.1 °F 89% 30.09 in 5.0 mi North 9.2 mph - N/A   Overcast
1:02 PM 37.4 °F 30.3 °F 35.6 °F 93% 30.09 in 8.0 mi North 10.4 mph - N/A   Overcast
1:52 PM 37.9 °F 31.5 °F 34.0 °F 86% 30.07 in 10.0 mi NNE 9.2 mph - N/A   Overcast
2:52 PM 37.0 °F 30.4 °F 34.0 °F 89% 30.06 in 7.0 mi North 9.2 mph - N/A   Overcast
3:05 PM 37.4 °F 31.4 °F 33.8 °F 87% 30.06 in 7.0 mi North 8.1 mph - N/A   Overcast
3:40 PM 37.4 °F 31.4 °F 33.8 °F 87% 30.09 in 8.0 mi North 8.1 mph - N/A   Overcast
3:52 PM 37.0 °F 29.8 °F 33.1 °F 86% 30.11 in 7.0 mi North 10.4 mph - N/A   Overcast
4:37 PM 33.8 °F 23.5 °F 32.0 °F 93% 30.11 in 2.5 mi North 16.1 mph 20.7 mph N/A   Overcast
4:45 PM 33.8 °F 24.3 °F 32.0 °F 93% 30.10 in 2.5 mi North 13.8 mph - N/A   Overcast
4:52 PM 33.1 °F 23.0 °F 32.0 °F 96% 30.11 in 2.0 mi North 15.0 mph - N/A   Overcast
5:20 PM 33.8 °F 25.8 °F 30.2 °F 87% 30.11 in 3.0 mi North 10.4 mph - N/A   Overcast
5:32 PM 33.8 °F 25.8 °F 30.2 °F 87% 30.11 in 2.5 mi North 10.4 mph - N/A   Overcast
5:39 PM 33.8 °F 25.8 °F 30.2 °F 87% 30.12 in 3.0 mi North 10.4 mph - N/A   Overcast
5:52 PM 33.1 °F 23.4 °F 30.9 °F 92% 30.14 in 3.0 mi NNW 13.8 mph - N/A   Overcast
6:04 PM 33.8 °F 25.3 °F 30.2 °F 87% 30.13 in 4.0 mi North 11.5 mph - N/A   Overcast
6:45 PM 32.0 °F 22.1 °F 28.4 °F 87% 30.15 in 6.0 mi NNW 13.8 mph - N/A   Overcast
6:52 PM 32.0 °F 22.1 °F 28.9 °F 88% 30.17 in 6.0 mi NNW 13.8 mph - N/A   Overcast
7:52 PM 30.9 °F 22.2 °F 27.0 °F 85% 30.17 in 6.0 mi NNW 10.4 mph - N/A   Overcast
8:12 PM 30.2 °F 22.6 °F 26.6 °F 86% 30.16 in 6.0 mi NNW 8.1 mph - N/A   Haze
8:52 PM 30.0 °F 22.4 °F 25.0 °F 82% 30.18 in 6.0 mi North 8.1 mph - N/A   Haze
9:52 PM 28.9 °F 21.1 °F 25.0 °F 85% 30.20 in 5.0 mi NNW 8.1 mph - N/A   Overcast
10:52 PM 28.9 °F 20.4 °F 24.1 °F 82% 30.19 in 5.0 mi NNW 9.2 mph - N/A   Haze
11:15 PM 28.4 °F 19.1 °F 24.8 °F 86% 30.19 in 5.0 mi NNW 10.4 mph - N/A   Overcast
11:52 PM 28.0 °F 19.3 °F 24.1 °F 85% 30.20 in 5.0 mi NNW 9.2 mph - N/A   Overcast